カタログに戻る

USA 184

運用中軍事HEO
NORAD 29249·PAYLOAD·🇺🇸 United States

打ち上げ Jun 28, 2006 から Vandenberg Space Force Base

Loading…

次のパス (今後24時間)

TLE

最新Source: Mike McCants

元期: Sep 14, 2026, 16:54 UTC

1 29249U 06027A   26257.70485767  .00000237  00000-0  00000-0 0    02
2 29249  63.4950 229.1563 6803418 273.1219  17.3758  2.00618127  5618

AllMySatでUSA 184をリアルタイム追跡

Download on the App Store